This demonstration page uses our WeatherBlox Daily Observations layout. Learn more.

Left ArrowRight Arrow

39.08367, -84.50855

Hourly Observations for March 15, 2018

Temp ( °F °C ) Dew Point ( °F °C ) Humidity (%) Winds ( mph kmh ) Pressure ( in mb ) Visibility ( mi km ) Precip ( " mm )
12:53 am 00:53 Clear 29 -1.7 20 -6.7 69 69 SSW 7 11 29.95 1014 10 16 N/A
1:53 am 01:53 Clear 28 -2.2 21 -6.1 75 75 SSW 7 11 29.91 1013 10 16 N/A
2:53 am 02:53 Cloudy 35 1.7 23 -5 61 61 SSW 12 19 29.86 1011 10 16 N/A
3:53 am 03:53 Mostly Cloudy 35 1.7 23 -5 61 61 SW 14 22 29.83 1010 10 16 N/A
4:53 am 04:53 Clear 38 3.3 23 -5 55 55 SW 15 24 29.80 1009 10 16 N/A
5:53 am 05:53 Clear 38 3.3 24 -4.4 57 57 WSW 12 19 29.80 1009 10 16 N/A
6:53 am 06:53 Clear 37 2.8 25 -3.9 62 62 WSW 8 13 29.81 1010 10 16 N/A
7:53 am 07:53 Sunny 36 2.2 25 -3.9 64 64 WSW 8 13 29.84 1010 10 16 N/A
8:53 am 08:53 Sunny 40 4.4 27 -2.8 60 60 W 9 15 29.85 1011 10 16 N/A
9:53 am 09:53 Sunny 43 6.1 28 -2.2 56 56 W 13 20 29.86 1011 10 16 N/A
10:53 am 10:53 Sunny 46 7.8 28 -2.2 50 50 W 9 15 29.87 1012 10 16 N/A
11:53 am 11:53 Sunny 49 9.4 26 -3.3 41 41 WNW 9 15 29.87 1012 10 16 N/A
12:53 pm 12:53 Sunny 51 10.6 24 -4.4 35 35 NW 8 13 29.86 1011 10 16 N/A
1:53 pm 13:53 Sunny 54 12.2 25 -3.9 33 33 W 12 19 29.84 1011 10 16 N/A
2:53 pm 14:53 Sunny 54 12.2 22 -5.6 29 29 WSW 16 26 29.82 1010 10 16 N/A
3:53 pm 15:53 Sunny 55 12.8 23 -5 29 29 W 13 20 29.82 1010 10 16 N/A
4:53 pm 16:53 Sunny 56 13.3 24 -4.4 29 29 W 10 17 29.81 1010 10 16 N/A
5:53 pm 17:53 Sunny 55 12.8 21 -6.1 26 26 W 13 20 29.81 1009 10 16 N/A
6:53 pm 18:53 Sunny 54 12.2 20 -6.7 26 26 W 16 26 29.82 1010 10 16 N/A
7:53 pm 19:53 Clear 51 10.6 18 -7.8 27 27 NW 8 13 29.83 1010 10 16 N/A
8:53 pm 20:53 Clear 49 9.4 20 -6.7 32 32 NW 6 9 29.85 1011 10 16 N/A
9:53 pm 21:53 Clear 46 7.8 24 -4.4 42 42 NNW 7 11 29.87 1012 10 16 N/A
10:53 pm 22:53 Clear 44 6.7 25 -3.9 47 47 WNW 5 7 29.89 1012 10 16 N/A
11:53 pm 23:53 Clear 44 6.7 26 -3.3 49 49 N 12 19 29.92 1013 10 16 N/A

Powered by AerisWeather